ENATENTC

Guest
Details From ENAT - ALTA
To ENTC - Tromso Langnes
Flight Number -
Tags generated
Created
Modified
Stats Distance 94 nm / 174 km
Max Altitude 4,800 ft / 1,463 m
Waypoints 3
Social Downloads 10
Likes 0
Share

Download

Looking for another format? Having issues loading an existing format? Contact us
Advertisement - Login to hide

Notes

Basic altitude profile: - Ascent Rate: 2500ft/min - Ascent Speed: 250kts - Cruise Altitude: 35000ft - Cruise Speed: 420kts - Descent Rate: 1500ft/min - Descent Speed: 250kts Options: - Use NATs: yes - Use PACOTS: yes - Use low airways: yes - Use high airways: yes

Route

ENAT LENSA ENTC

ID Type Via Altitude (ft/m) Position (lat/lon) Dist (leg/tot) Name
O ENAT APT - 0 / 0 69.97735 / 23.36543 - / 0 nm ALTA
LENSA FIX - 4,800 / 1,463 69.73306 / 20.00000 71 / 71 nm
O ENTC APT - 0 / 0 69.68287 / 18.91936 22 / 93 nm Tromso Langnes

Altitude Profile

Advertisement - Login to hide

ENAT

Details ICAO ENAT (ALF)
Name ALTA
Region Norway
Timezone Europe/Oslo (UTC+2.0)
Stats Elevation 8 ft / 2 m (AMSL)
Location 69.977500° 23.364600°
Runways 1
Magnetic Variation 12.044° E

METAR

ENAT 140420Z 03004KT 350V060 9999 FEW018 SCT035 BKN070 13/11 Q1007 RMK WIND 700FT 02005KT

Decode

TAF

Not found

Departure Runways

ID Width Length Bearing (true/mag) Surface Threshold Overrun Markings Lighting
12 151 ft / 46 m 7,399 ft / 2,255 m 121.16° / 109.11° ASPHALT 909 ft / 277 m 0 ft / 0 m PREC-APP CENTERLINE EDGE THRESHOLD MALSF
30 151 ft / 46 m 7,399 ft / 2,255 m 301.20° / 289.16° ASPHALT 725 ft / 221 m 0 ft / 0 m PREC-APP CENTERLINE EDGE THRESHOLD MALSF

ENTC

Details ICAO ENTC (TOS)
Name Tromso Langnes
Region Norway
Timezone Europe/Oslo (UTC+2.0)
Stats Elevation 28 ft / 9 m (AMSL)
Location 69.682900° 18.918600°
Runways 1
Magnetic Variation 9.408° E

METAR

ENTC 140420Z 21011KT 4600 DZ BKN005 12/11 Q1008 RMK WIND 2600FT 25021KT

Decode

TAF

TAF AMD ENTC 140200Z 1402/1424 21012KT 9999 -SHRA FEW012 BKN030 TEMPO 1402/1408 4000 SHRA FEW004 BKN008

Decode

Destination Runways

ID Width Length Bearing (true/mag) Surface Threshold Overrun Markings Lighting
18 148 ft / 45 m 7,520 ft / 2,292 m 193.07° / 183.66° ASPHALT 971 ft / 296 m 0 ft / 0 m PREC-APP CENTERLINE EDGE THRESHOLD MALSF
36 148 ft / 45 m 7,520 ft / 2,292 m 13.05° / 3.65° ASPHALT 0 ft / 0 m 0 ft / 0 m PREC-APP CENTERLINE EDGE THRESHOLD MALSF

Approach Navaids

Runway Type Ident Frequency Range Bearing (true/mag) Slope Elevation
18 LOC-ILS TR 109.90 MHz 18 nm / 33 km 193.07° / 183.66 ° - 28 ft / 9 m (AMSL)
18 GS TR 109.90 MHz 10 nm / 19 km 193.07° / 183.66 ° 4.00° 28 ft / 9 m (AMSL)
36 LOC-ILS TC 110.90 MHz 18 nm / 33 km 13.07° / 3.66 ° - 28 ft / 9 m (AMSL)
36 GS TC 110.90 MHz 10 nm / 19 km 13.07° / 3.66 ° 4.00° 28 ft / 9 m (AMSL)

Popular Alternatives